JBU126 KRDU-KMCO

Flight info

Callsign JBU126
Flight time 1h 18m
Altitude 32000
Route ROZBO5 ROZBO SLITT SMPRR Q85 LPERD GTOUT1
Aircraft A320/M-SDE3FGHIRWY/LB1

Departure

Time 2026-04-25 19:13
Airport Raleigh-Durham International Airport (KRDU)

Arrival

Time 2026-04-25 20:32
Airport Orlando International Airport (KMCO)
Time Latitude Longitude Altitude Speed Heading
2026-04-25 17:51 35.87754 -78.79414 392 ft 0 kts 135°
2026-04-25 19:03 35.87763 -78.79425 392 ft 4 kts 135°
2026-04-25 19:03 35.87786 -78.79467 392 ft 4 kts 88°
2026-04-25 19:03 35.87779 -78.79491 392 ft 1 kts 45°
2026-04-25 19:04 35.87776 -78.79494 392 ft 0 kts 45°
2026-04-25 19:07 35.87795 -78.79472 392 ft 4 kts 45°
2026-04-25 19:07 35.87821 -78.79439 392 ft 6 kts 45°
2026-04-25 19:08 35.87904 -78.79338 392 ft 10 kts 45°
2026-04-25 19:08 35.87960 -78.79269 392 ft 12 kts 45°
2026-04-25 19:09 35.88183 -78.78989 391 ft 18 kts 45°
2026-04-25 19:09 35.88213 -78.78951 391 ft 19 kts 45°
2026-04-25 19:09 35.88487 -78.78612 392 ft 23 kts 44°
2026-04-25 19:10 35.88608 -78.78463 392 ft 25 kts 45°
2026-04-25 19:10 35.88732 -78.78310 392 ft 26 kts 45°
2026-04-25 19:10 35.88863 -78.78148 392 ft 25 kts 45°
2026-04-25 19:10 35.88962 -78.78020 391 ft 21 kts 49°
2026-04-25 19:11 35.89037 -78.77855 392 ft 23 kts 46°
2026-04-25 19:11 35.89149 -78.77711 392 ft 25 kts 46°
2026-04-25 19:11 35.89242 -78.77661 392 ft 15 kts 333°
2026-04-25 19:11 35.89288 -78.77709 392 ft 9 kts 316°
2026-04-25 19:12 35.89335 -78.77766 393 ft 10 kts 315°
2026-04-25 19:12 35.89344 -78.77848 392 ft 12 kts 244°
2026-04-25 19:12 35.89303 -78.77904 392 ft 10 kts 225°
2026-04-25 19:12 35.89098 -78.78159 391 ft 76 kts 225°
2026-04-25 19:13 35.88781 -78.78550 394 ft 114 kts 225°
2026-04-25 19:13 35.88103 -78.79381 428 ft 154 kts 225°
2026-04-25 19:13 35.87339 -78.80362 942 ft 166 kts 227°
2026-04-25 19:13 35.86531 -78.81465 1560 ft 178 kts 228°
2026-04-25 19:14 35.85680 -78.82574 2139 ft 189 kts 226°
2026-04-25 19:14 35.85015 -78.83340 2543 ft 200 kts 217°
2026-04-25 19:14 35.83152 -78.84267 3167 ft 236 kts 192°
2026-04-25 19:14 35.81458 -78.84392 3731 ft 257 kts 177°
2026-04-25 19:15 35.79690 -78.83955 4615 ft 264 kts 163°
2026-04-25 19:15 35.78058 -78.82932 5525 ft 271 kts 146°
2026-04-25 19:15 35.76685 -78.81290 6402 ft 280 kts 131°
2026-04-25 19:15 35.75369 -78.79529 7238 ft 281 kts 142°
2026-04-25 19:16 35.73730 -78.78224 8099 ft 282 kts 159°
2026-04-25 19:16 35.71859 -78.77469 8968 ft 284 kts 167°
2026-04-25 19:16 35.69935 -78.76823 9813 ft 288 kts 167°
2026-04-25 19:16 35.67969 -78.76170 10340 ft 303 kts 167°
2026-04-25 19:17 35.65855 -78.75473 10623 ft 325 kts 167°
2026-04-25 19:17 35.63633 -78.74736 11193 ft 333 kts 167°
2026-04-25 19:17 35.61382 -78.73984 11892 ft 338 kts 167°
2026-04-25 19:17 35.59095 -78.73217 12605 ft 343 kts 167°
2026-04-25 19:18 35.56777 -78.72439 13312 ft 347 kts 167°
2026-04-25 19:18 35.54433 -78.71654 13951 ft 352 kts 167°
2026-04-25 19:18 35.52062 -78.70867 14540 ft 356 kts 168°
2026-04-25 19:18 35.49604 -78.70383 15109 ft 359 kts 175°
2026-04-25 19:19 35.47109 -78.70025 15695 ft 363 kts 175°
2026-04-25 19:19 35.44584 -78.69665 16287 ft 367 kts 176°
2026-04-25 19:19 35.42040 -78.69306 16887 ft 371 kts 175°
2026-04-25 19:19 35.40329 -78.69063 17285 ft 374 kts 176°
2026-04-25 19:20 35.36849 -78.68566 18066 ft 379 kts 175°
2026-04-25 19:20 35.34216 -78.68192 18600 ft 383 kts 176°
2026-04-25 19:20 35.31558 -78.67814 19148 ft 386 kts 176°
2026-04-25 19:20 35.28889 -78.67433 19725 ft 388 kts 176°
2026-04-25 19:21 35.26192 -78.67047 20292 ft 390 kts 176°
2026-04-25 19:21 35.20765 -78.66267 21390 ft 395 kts 176°
2026-04-25 19:21 35.18021 -78.65874 21908 ft 398 kts 176°
2026-04-25 19:22 35.15264 -78.65482 22410 ft 400 kts 176°
2026-04-25 19:22 35.12528 -78.65097 22926 ft 402 kts 176°
2026-04-25 19:22 35.06940 -78.64314 23854 ft 407 kts 176°
2026-04-25 19:23 35.04115 -78.63912 24267 ft 410 kts 176°
2026-04-25 19:23 34.98419 -78.63097 25093 ft 414 kts 176°
2026-04-25 19:23 34.95543 -78.62776 25479 ft 415 kts 182°
2026-04-25 19:24 34.92665 -78.62909 25871 ft 415 kts 186°
2026-04-25 19:24 34.89772 -78.63133 26271 ft 418 kts 186°
2026-04-25 19:24 34.83935 -78.63588 27060 ft 422 kts 186°
2026-04-25 19:25 34.78038 -78.64041 27805 ft 427 kts 186°
2026-04-25 19:25 34.75054 -78.64265 28186 ft 430 kts 186°
2026-04-25 19:25 34.72077 -78.64569 28557 ft 431 kts 191°
2026-04-25 19:26 34.69160 -78.65402 28921 ft 430 kts 201°
2026-04-25 19:26 34.66408 -78.66815 29283 ft 430 kts 210°
2026-04-25 19:26 34.63859 -78.68722 29654 ft 431 kts 215°
2026-04-25 19:26 34.61334 -78.70723 30014 ft 434 kts 215°
2026-04-25 19:27 34.58801 -78.72719 30318 ft 437 kts 215°
2026-04-25 19:27 34.57103 -78.74051 30520 ft 438 kts 215°
2026-04-25 19:27 34.53666 -78.76740 30930 ft 442 kts 215°
2026-04-25 19:27 34.51077 -78.78766 31257 ft 443 kts 215°
2026-04-25 19:28 34.48488 -78.80793 31687 ft 442 kts 215°
2026-04-25 19:28 34.45902 -78.82811 31852 ft 442 kts 215°
2026-04-25 19:28 34.43357 -78.84803 31883 ft 428 kts 216°
2026-04-25 19:28 34.40917 -78.86789 31889 ft 421 kts 217°
2026-04-25 19:29 34.36190 -78.90818 31892 ft 417 kts 218°
2026-04-25 19:29 34.31463 -78.94892 31890 ft 417 kts 217°
2026-04-25 19:30 34.26717 -78.98917 31885 ft 417 kts 217°
2026-04-25 19:30 34.21956 -79.02904 31877 ft 417 kts 217°
2026-04-25 19:31 34.17187 -79.06898 31878 ft 417 kts 217°
2026-04-25 19:31 34.12416 -79.10896 31872 ft 417 kts 217°
2026-04-25 19:32 34.07652 -79.14887 31873 ft 418 kts 217°
2026-04-25 19:32 34.03677 -79.18213 31877 ft 418 kts 217°
2026-04-25 19:33 33.98084 -79.22879 31892 ft 418 kts 217°
2026-04-25 19:33 33.93310 -79.26862 31892 ft 418 kts 217°
2026-04-25 19:34 33.88530 -79.30849 31892 ft 418 kts 217°
2026-04-25 19:34 33.83785 -79.34802 31896 ft 418 kts 217°
2026-04-25 19:35 33.78969 -79.38796 31894 ft 418 kts 217°
2026-04-25 19:35 33.74220 -79.42736 31887 ft 418 kts 217°
2026-04-25 19:36 33.69438 -79.46700 31888 ft 418 kts 217°
2026-04-25 19:36 33.64650 -79.50662 31886 ft 418 kts 217°
2026-04-25 19:37 33.59858 -79.54627 31877 ft 418 kts 217°
2026-04-25 19:37 33.55068 -79.58581 31883 ft 418 kts 217°
2026-04-25 19:38 33.50273 -79.62542 31879 ft 418 kts 217°
2026-04-25 19:38 33.45484 -79.66476 31879 ft 418 kts 217°
2026-04-25 19:39 33.40685 -79.70412 31876 ft 418 kts 217°
2026-04-25 19:39 33.35883 -79.74357 31878 ft 418 kts 217°
2026-04-25 19:40 33.31084 -79.78287 31881 ft 419 kts 217°
2026-04-25 19:40 33.26269 -79.82222 31886 ft 419 kts 217°
2026-04-25 19:41 33.21456 -79.86157 31898 ft 419 kts 217°
2026-04-25 19:41 33.18264 -79.88766 31893 ft 419 kts 217°
2026-04-25 19:42 33.11817 -79.94021 31900 ft 421 kts 217°
2026-04-25 19:42 33.06985 -79.97951 31898 ft 420 kts 217°
2026-04-25 19:43 33.02151 -80.01882 31904 ft 420 kts 217°
2026-04-25 19:43 32.97307 -80.05808 31906 ft 421 kts 217°
2026-04-25 19:44 32.92472 -80.09725 31907 ft 421 kts 217°
2026-04-25 19:44 32.87631 -80.13645 31907 ft 421 kts 217°
2026-04-25 19:45 32.82812 -80.17540 31909 ft 421 kts 217°
2026-04-25 19:45 32.77955 -80.21460 31906 ft 422 kts 217°
2026-04-25 19:46 32.73097 -80.25376 31909 ft 422 kts 217°
2026-04-25 19:46 32.68244 -80.29280 31910 ft 422 kts 217°
2026-04-25 19:47 32.63383 -80.33188 31908 ft 422 kts 217°
2026-04-25 19:47 32.58521 -80.37093 31905 ft 422 kts 217°
2026-04-25 19:48 32.53525 -80.40767 31905 ft 423 kts 212°
2026-04-25 19:48 32.48367 -80.44157 31908 ft 424 kts 211°
2026-04-25 19:49 32.44938 -80.46385 31908 ft 424 kts 211°
2026-04-25 19:49 32.38236 -80.50848 31912 ft 424 kts 212°
2026-04-25 19:50 32.30583 -80.56027 31934 ft 424 kts 212°
2026-04-25 19:51 32.25461 -80.59480 31937 ft 424 kts 212°
2026-04-25 19:51 32.20314 -80.62923 31936 ft 425 kts 212°
2026-04-25 19:52 32.15173 -80.66361 31933 ft 425 kts 212°
2026-04-25 19:52 32.10101 -80.69753 31930 ft 425 kts 212°
2026-04-25 19:53 32.04952 -80.73203 31918 ft 425 kts 212°
2026-04-25 19:53 31.99798 -80.76641 31907 ft 426 kts 212°
2026-04-25 19:54 31.94613 -80.80096 31898 ft 437 kts 212°
2026-04-25 19:54 31.91939 -80.81883 31884 ft 448 kts 212°
2026-04-25 19:54 31.89196 -80.83717 31886 ft 458 kts 212°
2026-04-25 19:55 31.83534 -80.87479 31883 ft 475 kts 212°
2026-04-25 19:55 31.77744 -80.91308 31880 ft 479 kts 212°
2026-04-25 19:56 31.71931 -80.95146 31886 ft 479 kts 212°
2026-04-25 19:56 31.66122 -80.98992 31887 ft 479 kts 212°
2026-04-25 19:57 31.60308 -81.02838 31887 ft 480 kts 212°
2026-04-25 19:57 31.54498 -81.06591 31889 ft 480 kts 210°
2026-04-25 19:58 31.48563 -81.10190 31888 ft 481 kts 209°
2026-04-25 19:58 31.42699 -81.13710 31893 ft 481 kts 210°
2026-04-25 19:59 31.36764 -81.17322 31896 ft 481 kts 210°
2026-04-25 19:59 31.30813 -81.20896 31894 ft 481 kts 209°
2026-04-25 20:00 31.24824 -81.24428 31895 ft 482 kts 209°
2026-04-25 20:00 31.18679 -81.27543 31891 ft 486 kts 197°
2026-04-25 20:00 31.15338 -81.28200 31891 ft 489 kts 185°
2026-04-25 20:01 31.08512 -81.28245 31883 ft 491 kts 181°
2026-04-25 20:01 31.01676 -81.28221 31886 ft 492 kts 182°
2026-04-25 20:02 30.95995 -81.28205 31892 ft 492 kts 182°
2026-04-25 20:02 30.89129 -81.28188 31894 ft 493 kts 181°
2026-04-25 20:03 30.82262 -81.28170 31906 ft 494 kts 181°
2026-04-25 20:03 30.78851 -81.28160 31917 ft 483 kts 181°
2026-04-25 20:03 30.74502 -81.28142 31923 ft 460 kts 182°
2026-04-25 20:04 30.69252 -81.28127 31929 ft 445 kts 182°
2026-04-25 20:04 30.63079 -81.28125 31928 ft 442 kts 182°
2026-04-25 20:05 30.56917 -81.28012 31928 ft 443 kts 179°
2026-04-25 20:05 30.50807 -81.27532 31922 ft 444 kts 177°
2026-04-25 20:06 30.44716 -81.26965 31730 ft 432 kts 178°
2026-04-25 20:06 30.41726 -81.26709 31481 ft 429 kts 178°
2026-04-25 20:06 30.38755 -81.26473 31239 ft 427 kts 178°
2026-04-25 20:07 30.35802 -81.26250 30993 ft 425 kts 178°
2026-04-25 20:07 30.32848 -81.26033 30759 ft 424 kts 178°
2026-04-25 20:07 30.29911 -81.25822 30514 ft 423 kts 178°
2026-04-25 20:07 30.26979 -81.25611 30280 ft 421 kts 178°
2026-04-25 20:08 30.24056 -81.25396 30045 ft 420 kts 178°
2026-04-25 20:08 30.21141 -81.25182 29781 ft 418 kts 178°
2026-04-25 20:08 30.18247 -81.24969 29516 ft 416 kts 178°
2026-04-25 20:08 30.15361 -81.24754 29245 ft 414 kts 178°
2026-04-25 20:09 30.12488 -81.24535 28970 ft 412 kts 178°
2026-04-25 20:09 30.09641 -81.24318 28716 ft 407 kts 178°
2026-04-25 20:09 30.06829 -81.24107 28326 ft 404 kts 178°
2026-04-25 20:09 30.04026 -81.23894 27919 ft 402 kts 178°
2026-04-25 20:10 30.01248 -81.23686 27524 ft 400 kts 178°
2026-04-25 20:10 29.98508 -81.23483 27114 ft 397 kts 178°
2026-04-25 20:10 29.95728 -81.23275 26703 ft 395 kts 178°
2026-04-25 20:10 29.93025 -81.23073 26296 ft 393 kts 178°
2026-04-25 20:11 29.90300 -81.22868 25872 ft 391 kts 178°
2026-04-25 20:11 29.87589 -81.22665 25438 ft 390 kts 178°
2026-04-25 20:11 29.84878 -81.22465 25007 ft 389 kts 178°
2026-04-25 20:11 29.82179 -81.22267 24562 ft 388 kts 178°
2026-04-25 20:12 29.79491 -81.22070 24113 ft 388 kts 178°
2026-04-25 20:12 29.76796 -81.21873 23666 ft 387 kts 178°
2026-04-25 20:12 29.74114 -81.21676 23163 ft 386 kts 178°
2026-04-25 20:12 29.72339 -81.21544 22855 ft 384 kts 178°
2026-04-25 20:13 29.68801 -81.21271 22301 ft 379 kts 178°
2026-04-25 20:13 29.66185 -81.21050 21881 ft 376 kts 178°
2026-04-25 20:13 29.63583 -81.20823 21458 ft 373 kts 178°
2026-04-25 20:13 29.61011 -81.20597 21037 ft 370 kts 178°
2026-04-25 20:14 29.58458 -81.20372 20624 ft 367 kts 178°
2026-04-25 20:14 29.55913 -81.20150 20206 ft 365 kts 178°
2026-04-25 20:14 29.53385 -81.19932 19789 ft 363 kts 178°
2026-04-25 20:14 29.50871 -81.19714 19373 ft 361 kts 178°
2026-04-25 20:15 29.48400 -81.19503 18965 ft 360 kts 178°
2026-04-25 20:15 29.45872 -81.19288 18543 ft 359 kts 178°
2026-04-25 20:15 29.43420 -81.19080 18157 ft 357 kts 178°
2026-04-25 20:15 29.40956 -81.18869 17798 ft 353 kts 178°
2026-04-25 20:16 29.38487 -81.18659 17342 ft 352 kts 178°
2026-04-25 20:16 29.36077 -81.18454 16902 ft 350 kts 178°
2026-04-25 20:16 29.33661 -81.18248 16505 ft 348 kts 178°
2026-04-25 20:16 29.31242 -81.18041 16097 ft 348 kts 178°
2026-04-25 20:17 29.28827 -81.17834 15693 ft 348 kts 178°
2026-04-25 20:17 29.26416 -81.17621 15290 ft 348 kts 178°
2026-04-25 20:17 29.24008 -81.17406 14891 ft 346 kts 178°
2026-04-25 20:17 29.21614 -81.17194 14487 ft 344 kts 179°
2026-04-25 20:18 29.19777 -81.17026 14172 ft 344 kts 176°
2026-04-25 20:18 29.17449 -81.16380 13855 ft 344 kts 162°
2026-04-25 20:18 29.15249 -81.15423 13739 ft 333 kts 162°
2026-04-25 20:18 29.13098 -81.14501 13473 ft 328 kts 162°
2026-04-25 20:19 29.10969 -81.13596 13131 ft 325 kts 162°
2026-04-25 20:19 29.08858 -81.12700 12807 ft 323 kts 162°
2026-04-25 20:19 29.06758 -81.11807 12514 ft 321 kts 162°
2026-04-25 20:19 29.04672 -81.10920 12174 ft 319 kts 162°
2026-04-25 20:20 29.02618 -81.10080 11873 ft 316 kts 163°
2026-04-25 20:20 29.00515 -81.09276 11586 ft 313 kts 164°
2026-04-25 20:20 28.98476 -81.08519 11238 ft 312 kts 165°
2026-04-25 20:20 28.96356 -81.07995 10863 ft 308 kts 177°
2026-04-25 20:21 28.94263 -81.07776 10606 ft 304 kts 177°
2026-04-25 20:21 28.92170 -81.07542 10273 ft 302 kts 176°
2026-04-25 20:21 28.90083 -81.07357 9956 ft 299 kts 184°
2026-04-25 20:21 28.88057 -81.07704 9625 ft 293 kts 199°
2026-04-25 20:22 28.86222 -81.08646 9274 ft 288 kts 214°
2026-04-25 20:22 28.85111 -81.09518 9025 ft 287 kts 217°
2026-04-25 20:22 28.82952 -81.11236 8476 ft 285 kts 216°
2026-04-25 20:22 28.81312 -81.12532 7712 ft 288 kts 216°
2026-04-25 20:23 28.79678 -81.13825 7224 ft 280 kts 216°
2026-04-25 20:23 28.78129 -81.15053 7052 ft 262 kts 216°
2026-04-25 20:23 28.76722 -81.16253 6884 ft 246 kts 220°
2026-04-25 20:23 28.75421 -81.17483 6569 ft 239 kts 221°
2026-04-25 20:24 28.74189 -81.18696 6283 ft 230 kts 221°
2026-04-25 20:24 28.73011 -81.19869 6000 ft 220 kts 221°
2026-04-25 20:24 28.71878 -81.20996 5744 ft 212 kts 221°
2026-04-25 20:24 28.70793 -81.22069 5492 ft 203 kts 221°
2026-04-25 20:25 28.69756 -81.23093 5274 ft 191 kts 221°
2026-04-25 20:25 28.68774 -81.24061 5032 ft 182 kts 221°
2026-04-25 20:25 28.67834 -81.24984 4811 ft 174 kts 221°
2026-04-25 20:25 28.67061 -81.25744 4630 ft 167 kts 221°
2026-04-25 20:26 28.66219 -81.26569 4430 ft 160 kts 221°
2026-04-25 20:26 28.65383 -81.27387 4259 ft 156 kts 220°
2026-04-25 20:26 28.64567 -81.28186 4076 ft 153 kts 220°
2026-04-25 20:26 28.63762 -81.28977 3887 ft 152 kts 221°
2026-04-25 20:27 28.62963 -81.29762 3722 ft 148 kts 220°
2026-04-25 20:27 28.62199 -81.30513 3538 ft 144 kts 220°
2026-04-25 20:27 28.61447 -81.31254 3364 ft 143 kts 220°
2026-04-25 20:27 28.60697 -81.31992 3190 ft 142 kts 220°
2026-04-25 20:28 28.59877 -81.32605 3020 ft 142 kts 202°
2026-04-25 20:28 28.58905 -81.32744 2813 ft 142 kts 181°
2026-04-25 20:28 28.57972 -81.32783 2627 ft 142 kts 182°
2026-04-25 20:28 28.56992 -81.32802 2440 ft 142 kts 180°
2026-04-25 20:29 28.56016 -81.32808 2268 ft 142 kts 180°
2026-04-25 20:29 28.55030 -81.32808 2106 ft 142 kts 179°
2026-04-25 20:29 28.54045 -81.32801 2002 ft 141 kts 179°
2026-04-25 20:29 28.53049 -81.32787 1822 ft 141 kts 178°
2026-04-25 20:30 28.52071 -81.32768 1676 ft 141 kts 179°
2026-04-25 20:30 28.51101 -81.32771 1549 ft 141 kts 179°
2026-04-25 20:30 28.50120 -81.32783 1378 ft 140 kts 179°
2026-04-25 20:30 28.49143 -81.32764 1223 ft 140 kts 175°
2026-04-25 20:31 28.48246 -81.32707 1019 ft 138 kts 177°
2026-04-25 20:31 28.47280 -81.32712 739 ft 139 kts 181°
2026-04-25 20:31 28.46321 -81.32696 527 ft 139 kts 180°
2026-04-25 20:31 28.45364 -81.32693 282 ft 139 kts 183°
2026-04-25 20:32 28.44397 -81.32689 125 ft 138 kts 183°
2026-04-25 20:32 28.43579 -81.32691 99 ft 113 kts 179°
2026-04-25 20:32 28.43090 -81.32688 100 ft 34 kts 179°
2026-04-25 20:32 28.42841 -81.32680 102 ft 36 kts 176°
2026-04-25 20:33 28.42640 -81.32627 100 ft 16 kts 142°
2026-04-25 20:33 28.42592 -81.32563 101 ft 0 kts 121°
2026-04-25 20:41 28.42588 -81.32556 100 ft 4 kts 121°
2026-04-25 20:41 28.42562 -81.32504 101 ft 11 kts 119°
2026-04-25 20:42 28.42510 -81.32398 101 ft 19 kts 119°
2026-04-25 20:42 28.42442 -81.32259 104 ft 21 kts 119°
2026-04-25 20:42 28.42372 -81.32110 105 ft 23 kts 117°
2026-04-25 20:42 28.42281 -81.31941 100 ft 28 kts 121°
2026-04-25 20:43 28.42140 -81.31864 98 ft 24 kts 192°
2026-04-25 20:43 28.41967 -81.31878 98 ft 26 kts 180°
2026-04-25 20:43 28.41780 -81.31877 99 ft 25 kts 181°
2026-04-25 20:43 28.41595 -81.31882 99 ft 28 kts 182°
2026-04-25 20:44 28.41492 -81.31901 99 ft 13 kts 183°